Weather History for K20V - April, 2013

Change the Weather History Date:

Wednesday, April 10, 2013

  Actual Average (KEGE) Record (KEGE)
Temperature  
Mean Temperature 24 °F -  
Max Temperature 35 °F 60 °F - (-1)
Min Temperature 12 °F 24 °F - (-1)
Degree Days  
Heating Degree Days 42    
Moisture  
Dew Point 9 °F    
Average Humidity 56    
Maximum Humidity 79    
Minimum Humidity 38    
Precipitation  
Precipitation 0.00 in - - ()
Sea Level Pressure  
Sea Level Pressure 29.98 in    
Wind  
Wind Speed 7 mph (NW)    
Max Wind Speed 13 mph    
Max Gust Speed 24 mph    
Visibility 10 miles    
Events Snow    
Averages and records for this station are not official NWS values.
T = Trace of Precipitation, MM = Missing Value Source: NWS Daily Summary

Daily Weather History Graph

Daily Weather History Graph

Search for Another Location

Airport or City:

Trip Planner

Search our weather history database for the weather conditions in past years. The results will help you decide how hot, cold, wet, or windy it might be!

Date:

Astronomy

Apr. 10, 2013 Rise Set
Actual Time 6:34 AM MDT 7:39 PM MDT
Civil Twilight 6:06 AM MDT 8:07 PM MDT
Nautical Twilight 5:33 AM MDT 8:40 PM MDT
Astronomical Twilight 4:59 AM MDT 9:14 PM MDT
Moon 6:32 AM MDT (4/10) 8:17 PM MDT (4/10)
Length of Visible Light 14h 00m
Length of Day
13h 04m
New Moon, 0% of the Moon is Illuminated
Apr 10
New Moon
Apr 18
First Quarter
Apr 25
Full
May 2
Last Quarter
May 9
New

Hourly Weather History & Observations

Time (MDT) Temp. Windchill Dew Point Humidity Pressure Visibility Wind Dir Wind Speed Gust Speed Precip Events Conditions
12:15 AM 15.8 °F 2.7 °F 10.4 °F 79% 29.96 in 3.0 mi NNW 11.5 mph - N/A Snow Light Snow
12:35 AM 14.0 °F -0.2 °F 8.6 °F 79% 29.96 in 3.0 mi NNW 12.7 mph 18.4 mph N/A Snow Light Snow
12:55 AM 14.0 °F -0.2 °F 8.6 °F 79% 29.97 in 7.0 mi NNW 12.7 mph 18.4 mph N/A   Overcast
1:15 AM 14.0 °F 0.5 °F 8.6 °F 79% 29.97 in 10.0 mi North 11.5 mph - N/A   Overcast
1:35 AM 14.0 °F 0.5 °F 6.8 °F 73% 29.97 in 10.0 mi North 11.5 mph - N/A   Overcast
1:55 AM 14.0 °F 0.5 °F 5.0 °F 67% 29.98 in 10.0 mi North 11.5 mph - N/A   Overcast
2:15 AM 14.0 °F 0.5 °F 5.0 °F 67% 29.98 in 10.0 mi NNW 11.5 mph 17.3 mph N/A Snow Light Snow
2:35 AM 14.0 °F 2.9 °F 3.2 °F 62% 29.98 in 10.0 mi NNW 8.1 mph - N/A   Overcast
2:55 AM 14.0 °F 2.0 °F 3.2 °F 62% 29.99 in 10.0 mi NNW 9.2 mph - N/A   Overcast
3:15 AM 14.0 °F 3.9 °F 3.2 °F 62% 29.99 in 10.0 mi NNW 6.9 mph - N/A Snow Light Snow
3:35 AM 14.0 °F 2.9 °F 5.0 °F 67% 29.99 in 7.0 mi NNW 8.1 mph - N/A Snow Light Snow
3:55 AM 14.0 °F 2.0 °F 5.0 °F 67% 29.99 in 10.0 mi NNW 9.2 mph - N/A   Overcast
4:15 AM 14.0 °F 2.0 °F 5.0 °F 67% 29.99 in 10.0 mi NNW 9.2 mph - N/A   Overcast
4:35 AM 14.0 °F 3.9 °F 5.0 °F 67% 29.99 in 7.0 mi North 6.9 mph - N/A Snow Light Snow
4:54 AM 14.0 °F 5.1 °F 8.6 °F 79% 29.98 in 10.0 mi ENE 5.8 mph - N/A   Overcast
5:15 AM 14.0 °F 8.2 °F 6.8 °F 73% 29.99 in 10.0 mi ENE 3.5 mph - N/A   Overcast
5:35 AM 12.2 °F - 5.0 °F 73% 30.01 in 10.0 mi Calm Calm - N/A   Scattered Clouds
5:55 AM 12.2 °F - 5.0 °F 73% 30.01 in 10.0 mi Calm Calm - N/A   Mostly Cloudy
6:15 AM 12.2 °F 6.1 °F 3.2 °F 67% 30.01 in 10.0 mi NNW 3.5 mph - N/A   Mostly Cloudy
6:35 AM 12.2 °F 2.9 °F 3.2 °F 67% 30.02 in 10.0 mi North 5.8 mph - N/A   Mostly Cloudy
6:55 AM 12.2 °F 4.3 °F 3.2 °F 67% 30.03 in 10.0 mi NNW 4.6 mph - N/A   Overcast
7:15 AM 12.2 °F 6.1 °F 3.2 °F 67% 30.02 in 10.0 mi NNW 3.5 mph - N/A   Overcast
7:35 AM 14.0 °F 8.2 °F 5.0 °F 67% 30.04 in 10.0 mi ENE 3.5 mph - N/A   Mostly Cloudy
7:55 AM 14.0 °F - 6.8 °F 73% 30.04 in 10.0 mi Calm Calm - N/A   Overcast
8:15 AM 14.0 °F - 6.8 °F 73% 30.04 in 7.0 mi Calm Calm - N/A Snow Light Snow
8:35 AM 15.8 °F - 5.0 °F 62% 30.04 in 10.0 mi Calm Calm - N/A Snow Light Snow
8:55 AM 17.6 °F - 6.8 °F 63% 30.04 in 7.0 mi Calm Calm - N/A Snow Light Snow
9:15 AM 17.6 °F - 5.0 °F 58% 30.04 in 10.0 mi Calm Calm - N/A   Overcast
9:35 AM 19.4 °F 12.8 °F 6.8 °F 58% 30.04 in 10.0 mi SSE 4.6 mph - N/A   Overcast
9:55 AM 19.4 °F - 8.6 °F 63% 30.04 in 7.0 mi Calm Calm - N/A Snow Light Snow
10:15 AM 21.2 °F - 6.8 °F 54% 30.03 in 10.0 mi Calm Calm - N/A   Overcast
10:35 AM 21.2 °F - 6.8 °F 54% 30.02 in 10.0 mi Calm Calm - N/A   Scattered Clouds
11:15 AM 24.8 °F 19.1 °F 8.6 °F 50% 30.02 in 10.0 mi NE 4.6 mph - N/A   Mostly Cloudy
11:35 AM 24.8 °F - 8.6 °F 50% 30.01 in 10.0 mi Calm Calm - N/A   Overcast
11:55 AM 28.4 °F 24.6 °F 10.4 °F 47% 30.00 in 10.0 mi West 3.5 mph - N/A   Overcast
12:15 PM 30.2 °F 25.4 °F 14.0 °F 51% 30.00 in 10.0 mi West 4.6 mph - N/A   Overcast
12:35 PM 30.2 °F 25.4 °F 12.2 °F 47% 29.99 in 10.0 mi West 4.6 mph - N/A Snow Light Snow
12:55 PM 30.2 °F 24.3 °F 14.0 °F 51% 29.98 in 10.0 mi West 5.8 mph - N/A   Overcast
1:15 PM 33.8 °F 27.7 °F 14.0 °F 44% 29.97 in 10.0 mi WSW 6.9 mph - N/A   Overcast
1:35 PM 33.8 °F 24.8 °F 14.0 °F 44% 29.96 in 10.0 mi West 12.7 mph 16.1 mph N/A   Overcast
1:55 PM 33.8 °F 26.4 °F 12.2 °F 41% 29.95 in 10.0 mi SSW 9.2 mph 17.3 mph N/A   Overcast
2:14 PM 35.6 °F 29.9 °F 14.0 °F 41% 29.94 in 10.0 mi SSW 6.9 mph 16.1 mph N/A   Overcast
2:35 PM 35.6 °F 30.7 °F 12.2 °F 38% 29.94 in 10.0 mi WSW 5.8 mph - N/A   Overcast
2:55 PM 35.6 °F 28.0 °F 14.0 °F 41% 29.93 in 10.0 mi West 10.4 mph - N/A   Overcast
3:15 PM 35.6 °F 28.0 °F 12.2 °F 38% 29.92 in 10.0 mi WSW 10.4 mph 17.3 mph N/A   Overcast
3:35 PM 35.6 °F 30.7 °F 12.2 °F 38% 29.92 in 10.0 mi West 5.8 mph 18.4 mph N/A   Overcast
3:54 PM 33.8 °F 27.7 °F 12.2 °F 41% 29.91 in 10.0 mi WNW 6.9 mph - N/A   Overcast
4:15 PM 33.8 °F 27.0 °F 12.2 °F 41% 29.92 in 10.0 mi NNW 8.1 mph 24.2 mph N/A   Overcast
4:35 PM 33.8 °F 25.3 °F 12.2 °F 41% 29.91 in 10.0 mi NNW 11.5 mph 17.3 mph N/A   Mostly Cloudy
4:55 PM 32.0 °F 23.0 °F 12.2 °F 44% 29.91 in 10.0 mi NNW 11.5 mph 17.3 mph N/A   Mostly Cloudy
5:15 PM 32.0 °F 23.6 °F 10.4 °F 41% 29.92 in 10.0 mi NNW 10.4 mph 17.3 mph N/A   Scattered Clouds
5:35 PM 32.0 °F 23.6 °F 10.4 °F 41% 29.91 in 10.0 mi NW 10.4 mph 17.3 mph N/A   Scattered Clouds
5:54 PM 33.8 °F 25.8 °F 12.2 °F 41% 29.92 in 10.0 mi NW 10.4 mph 16.1 mph N/A   Clear
6:15 PM 33.8 °F 26.4 °F 10.4 °F 38% 29.93 in 10.0 mi NW 9.2 mph - N/A   Scattered Clouds
6:34 PM 32.0 °F 24.2 °F 10.4 °F 41% 29.94 in 10.0 mi NW 9.2 mph - N/A   Scattered Clouds
6:54 PM 32.0 °F 23.0 °F 10.4 °F 41% 29.96 in 10.0 mi NW 11.5 mph - N/A   Clear
7:15 PM 30.2 °F 23.4 °F 8.6 °F 40% 29.96 in 10.0 mi NW 6.9 mph 17.3 mph N/A   Clear
7:35 PM 30.2 °F 23.4 °F 10.4 °F 44% 29.97 in 10.0 mi NW 6.9 mph - N/A   Clear
7:55 PM 28.4 °F 22.2 °F 10.4 °F 47% 29.97 in 10.0 mi NW 5.8 mph - N/A   Clear
8:15 PM 28.4 °F 18.5 °F 8.6 °F 43% 29.99 in 10.0 mi West 11.5 mph - N/A   Clear
8:35 PM 28.4 °F 19.1 °F 8.6 °F 43% 29.99 in 10.0 mi West 10.4 mph - N/A   Clear
8:55 PM 26.6 °F 21.2 °F 8.6 °F 47% 29.99 in 10.0 mi NW 4.6 mph - N/A   Clear
9:15 PM 26.6 °F - 8.6 °F 47% 30.00 in 10.0 mi Calm Calm - N/A   Clear
9:35 PM 23.0 °F - 12.2 °F 63% 30.01 in 10.0 mi Calm Calm - N/A   Mostly Cloudy
9:55 PM 24.8 °F - 14.0 °F 64% 30.00 in 10.0 mi Calm Calm - N/A   Overcast
10:15 PM 24.8 °F - 14.0 °F 64% 29.99 in 10.0 mi Calm Calm - N/A   Overcast
10:35 PM 24.8 °F 20.5 °F 14.0 °F 64% 29.99 in 10.0 mi North 3.5 mph - N/A   Overcast
10:55 PM 26.6 °F - 15.8 °F 64% 29.99 in 10.0 mi Calm Calm - N/A   Overcast
11:14 PM 28.4 °F - 14.0 °F 55% 29.98 in 10.0 mi Calm Calm - N/A   Overcast
11:35 PM 28.4 °F 22.2 °F 15.8 °F 59% 29.97 in 10.0 mi ESE 5.8 mph - N/A   Overcast
11:54 PM 28.4 °F 24.6 °F 17.6 °F 64% 29.96 in 10.0 mi ESE 3.5 mph - N/A   Overcast